Weather History for KOZR - May, 2014

Change the Weather History Date:

Friday, May 16, 2014

  Actual Average Record
Temperature  
Mean Temperature 61 °F -  
Max Temperature 76 °F 82 °F 89 °F (1998)
Min Temperature 47 °F 59 °F 47 °F (2014)
Degree Days  
Heating Degree Days 4    
Growing Degree Days 11 (Base 50)    
Moisture  
Dew Point 48 °F    
Average Humidity 57    
Maximum Humidity 93    
Minimum Humidity 37    
Precipitation  
Precipitation 0.00 in - - ()
Sea Level Pressure  
Sea Level Pressure 30.14 in    
Wind  
Wind Speed 8 mph (WNW)    
Max Wind Speed 16 mph    
Max Gust Speed 25 mph    
Visibility 10 miles    
Events Rain    
Averages and records for this station are not official NWS values.
T = Trace of Precipitation, MM = Missing Value Source: NWS Daily Summary

Daily Weather History Graph

Daily Weather History Graph

Search for Another Location

Airport or City:

Trip Planner

Search our weather history database for the weather conditions in past years. The results will help you decide how hot, cold, wet, or windy it might be!

Date:

Astronomy

May. 16, 2014 Rise Set
Actual Time 5:46 AM CDT 7:32 PM CDT
Civil Twilight 5:19 AM CDT 7:59 PM CDT
Nautical Twilight 4:47 AM CDT 8:31 PM CDT
Astronomical Twilight 4:13 AM CDT 9:05 PM CDT
Moon 9:38 PM CDT (5/16) 7:27 AM CDT (5/16)
Length of Visible Light 14h 39m
Length of Day
13h 46m
Waning Gibbous, 95% of the Moon is Illuminated
May 16
Waning Gibbous
May 21
Last Quarter
May 28
New
Jun 5
First Quarter
Jun 12
Full

Hourly Weather History & Observations

Time (CDT) Temp. Dew Point Humidity Pressure Visibility Wind Dir Wind Speed Gust Speed Precip Events Conditions
12:58 AM 51.1 °F 47.5 °F 87% 30.13 in 10.0 mi WNW 5.8 mph - N/A   Clear
1:58 AM 51.3 °F 46.6 °F 84% 30.13 in 10.0 mi WNW 8.1 mph - N/A   Clear
2:58 AM 50.9 °F 46.4 °F 85% 30.13 in 10.0 mi WNW 5.8 mph - N/A   Clear
3:58 AM 48.6 °F 45.9 °F 90% 30.13 in 10.0 mi WNW 4.6 mph - N/A   Clear
4:58 AM 48.4 °F 45.7 °F 90% 30.12 in 10.0 mi West 4.6 mph - N/A   Clear
5:58 AM 47.5 °F 45.5 °F 93% 30.14 in 10.0 mi West 5.8 mph - N/A   Clear
6:58 AM 51.4 °F 48.0 °F 88% 30.15 in 10.0 mi WSW 3.5 mph - N/A   Clear
7:58 AM 56.1 °F 50.0 °F 80% 30.17 in 10.0 mi West 4.6 mph - N/A   Clear
8:58 AM 63.5 °F 49.1 °F 59% 30.17 in 10.0 mi West 10.4 mph - N/A   Clear
9:58 AM 68.0 °F 47.1 °F 47% 30.18 in 10.0 mi WNW 15.0 mph 21.9 mph N/A   Clear
10:58 AM 70.2 °F 47.5 °F 44% 30.17 in 10.0 mi West 13.8 mph 18.4 mph N/A   Clear
11:39 AM 71.6 °F 50.0 °F 46% 30.16 in 10.0 mi West 13.8 mph - N/A   Partly Cloudy
11:47 AM 71.6 °F 48.2 °F 43% 30.16 in 1.8 mi West 11.5 mph 19.6 mph N/A Rain Light Rain
11:58 AM 72.5 °F 48.2 °F 42% 30.17 in 10.0 mi WNW 10.4 mph - N/A   Partly Cloudy
12:58 PM 73.9 °F 48.0 °F 40% 30.14 in 10.0 mi WNW 12.7 mph 20.7 mph N/A   Clear
1:58 PM 74.7 °F 46.9 °F 37% 30.13 in 10.0 mi West 16.1 mph 25.3 mph N/A   Partly Cloudy
2:19 PM 73.4 °F 48.2 °F 41% 30.11 in 10.0 mi NW 15.0 mph - N/A   Clear
2:35 PM 75.2 °F 48.2 °F 38% 30.11 in 10.0 mi West 12.7 mph 20.7 mph N/A   Clear
2:45 PM 75.2 °F 48.2 °F 38% 30.10 in 10.0 mi NW 13.8 mph 17.3 mph N/A   Clear
2:58 PM 75.6 °F 48.7 °F 39% 30.11 in 10.0 mi NW 11.5 mph 19.6 mph N/A   Partly Cloudy
3:58 PM 75.9 °F 48.6 °F 38% 30.10 in 10.0 mi WNW 9.2 mph 18.4 mph N/A   Scattered Clouds
4:58 PM 75.2 °F 48.2 °F 38% 30.09 in 10.0 mi WNW 8.1 mph 16.1 mph N/A   Scattered Clouds
5:58 PM 74.1 °F 47.7 °F 39% 30.09 in 10.0 mi WNW 9.2 mph 17.3 mph N/A   Scattered Clouds
6:58 PM 71.2 °F 48.7 °F 45% 30.11 in 10.0 mi NW 5.8 mph - N/A   Clear
7:58 PM 67.5 °F 49.5 °F 52% 30.12 in 10.0 mi NNW 5.8 mph - N/A   Clear
8:58 PM 66.0 °F 48.0 °F 52% 30.14 in 10.0 mi NNW 5.8 mph - N/A   Clear
9:58 PM 64.2 °F 44.6 °F 49% 30.16 in 10.0 mi NNW 6.9 mph - N/A   Clear
10:58 PM 59.2 °F 48.2 °F 67% 30.18 in 10.0 mi Calm Calm - N/A   Clear
11:58 PM 58.3 °F 48.6 °F 70% 30.17 in 10.0 mi ENE 3.5 mph - N/A   Clear